Weather History for Robinson, IL

Change the Weather History Date:

Monday, February 25, 2013

  Actual Average (KLWV) Record (KLWV)
Temperature  
Mean Temperature 39 °F 38 °F  
Max Temperature 51 °F 48 °F 63 °F (1998)
Min Temperature 27 °F 30 °F 1 °F (2003)
Degree Days  
Heating Degree Days 26 26  
Month to date heating degree days 748  
Since 1 July heating degree days 3599  
Cooling Degree Days 0 0  
Month to date cooling degree days 0  
Year to date cooling degree days 0  
Moisture  
Dew Point 28 °F    
Average Humidity 64    
Maximum Humidity 94    
Minimum Humidity 40    
Precipitation  
Precipitation 0.00 in 0.06 in 0.74 in (1979)
Month to date precipitation 1.83  
Year to date precipitation 4.21  
Sea Level Pressure  
Sea Level Pressure 29.99 in    
Wind  
Wind Speed 8 mph (NE)    
Max Wind Speed 21 mph    
Max Gust Speed 26 mph    
Visibility 10 miles    
Events      
T = Trace of Precipitation, MM = Missing Value Source: NWS Daily Summary

Daily Weather History Graph

Daily Weather History Graph

Search for Another Location

Airport:

Trip Planner

Search our weather history database for the weather conditions in past years. The results will help you decide how hot, cold, wet, or windy it might be!

Date:

Astronomy

Feb. 25, 2013 Rise Set
Actual Time 6:28 AM CST 5:39 PM CST
Civil Twilight 6:01 AM CST 6:06 PM CST
Nautical Twilight 5:30 AM CST 6:37 PM CST
Astronomical Twilight 4:59 AM CST 7:08 PM CST
Moon 5:51 PM CST (2/25) 5:58 AM CST (2/25)
Length of Visible Light 12h 04m
Length of Day
11h 10m
Full, 100% of the Moon is Illuminated
Feb 25
Full
Feb 25
Full
Mar 4
Last Quarter
Mar 11
New
Mar 19
First Quarter

Hourly Weather History & Observations

Time (CST) Temp. Windchill Dew Point Humidity Pressure Visibility Wind Dir Wind Speed Gust Speed Precip Events Conditions
12:15 AM 30.2 °F 26.7 °F 28.4 °F 93% 30.11 in 10.0 mi NNE 3.5 mph - N/A   Clear
12:55 AM 28.8 °F - 27.1 °F 94% 30.11 in 10.0 mi Calm Calm - N/A   Clear
1:15 AM 29.3 °F - 27.1 °F 92% 30.10 in 10.0 mi Calm Calm - N/A   Clear
1:55 AM 29.1 °F - 27.1 °F 92% 30.11 in 10.0 mi Calm Calm - N/A   Clear
2:15 AM 27.9 °F - 26.2 °F 94% 30.12 in 7.0 mi Calm Calm - N/A   Clear
2:35 AM 28.9 °F - 27.5 °F 94% 30.12 in 7.0 mi Calm Calm - N/A   Clear
2:55 AM 28.8 °F - 27.3 °F 94% 30.11 in 7.0 mi Calm Calm - N/A   Clear
3:35 AM 27.1 °F 23.2 °F 25.5 °F 94% 30.11 in 7.0 mi North 3.5 mph - N/A   Clear
3:55 AM 27.5 °F 23.6 °F 25.7 °F 93% 30.12 in 10.0 mi NNE 3.5 mph - N/A   Clear
4:15 AM 27.5 °F 23.6 °F 25.7 °F 93% 30.12 in 10.0 mi NNE 3.5 mph - N/A   Clear
4:35 AM 28.8 °F - 26.8 °F 92% 30.13 in 10.0 mi Calm Calm - N/A   Clear
4:55 AM 30.2 °F 26.7 °F 27.5 °F 90% 30.13 in 10.0 mi NE 3.5 mph - N/A   Clear
5:15 AM 29.8 °F - 26.6 °F 88% 30.13 in 10.0 mi Calm Calm - N/A   Clear
5:55 AM 30.4 °F - 27.0 °F 87% 30.12 in 10.0 mi Calm Calm - N/A   Clear
6:15 AM 30.6 °F 27.1 °F 27.0 °F 86% 30.11 in 7.0 mi NE 3.5 mph - N/A   Clear
6:55 AM 30.6 °F 23.8 °F 27.1 °F 87% 30.10 in 7.0 mi NNE 6.9 mph - N/A   Clear
7:15 AM 31.8 °F 27.3 °F 27.5 °F 84% 30.11 in 7.0 mi ENE 4.6 mph - N/A   Clear
7:35 AM 32.7 °F 27.3 °F 27.7 °F 82% 30.11 in 10.0 mi ENE 5.8 mph - N/A   Clear
7:55 AM 34.0 °F 26.6 °F 28.2 °F 79% 30.12 in 10.0 mi ENE 9.2 mph - N/A   Clear
8:15 AM 34.9 °F 27.1 °F 28.4 °F 77% 30.11 in 10.0 mi East 10.4 mph - N/A   Clear
8:35 AM 36.5 °F 28.2 °F 28.4 °F 72% 30.11 in 10.0 mi East 12.7 mph - N/A   Clear
8:55 AM 37.8 °F 30.7 °F 28.8 °F 70% 30.12 in 10.0 mi East 10.4 mph - N/A   Clear
9:15 AM 39.2 °F 32.5 °F 29.1 °F 67% 30.11 in 10.0 mi ENE 10.4 mph - N/A   Clear
9:35 AM 40.3 °F 33.0 °F 29.3 °F 65% 30.11 in 10.0 mi ENE 12.7 mph - N/A   Clear
9:55 AM 41.4 °F 33.3 °F 29.3 °F 62% 30.09 in 10.0 mi East 16.1 mph - N/A   Clear
10:15 AM 41.7 °F 34.8 °F 28.2 °F 59% 30.09 in 10.0 mi East 12.7 mph - N/A   Clear
10:35 AM 43.0 °F 35.7 °F 28.6 °F 57% 30.08 in 10.0 mi East 15.0 mph - N/A   Clear
10:55 AM 44.4 °F 37.9 °F 29.5 °F 56% 30.08 in 10.0 mi ENE 13.8 mph - N/A   Clear
11:15 AM 45.1 °F 39.1 °F 28.9 °F 53% 30.08 in 10.0 mi ENE 12.7 mph - N/A   Clear
11:35 AM 45.9 °F 40.4 °F 28.9 °F 52% 30.07 in 10.0 mi ENE 11.5 mph - N/A   Clear
11:55 AM 46.4 °F 40.4 °F 28.2 °F 49% 30.05 in 10.0 mi ENE 13.8 mph 19.6 mph N/A   Clear
12:15 PM 47.5 °F - 28.6 °F 48% 30.04 in 10.0 mi East 13.8 mph - N/A   Clear
12:35 PM 48.2 °F - 29.1 °F 48% 30.03 in 10.0 mi East 15.0 mph - N/A   Clear
1:15 PM 48.6 °F - 28.4 °F 46% 29.99 in 10.0 mi East 13.8 mph - N/A   Clear
1:35 PM 49.5 °F - 28.2 °F 44% 29.98 in 10.0 mi NE 12.7 mph 18.4 mph N/A   Clear
1:55 PM 50.2 °F - 26.8 °F 40% 29.98 in 10.0 mi ENE 15.0 mph 18.4 mph N/A   Clear
2:15 PM 49.6 °F - 27.3 °F 42% 29.97 in 10.0 mi NE 13.8 mph - N/A   Clear
2:35 PM 49.6 °F - 27.0 °F 41% 29.96 in 10.0 mi NE 10.4 mph - N/A   Clear
2:55 PM 51.4 °F - 28.6 °F 41% 29.95 in 10.0 mi NE 10.4 mph - N/A   Clear
3:15 PM 50.7 °F - 27.7 °F 41% 29.95 in 10.0 mi ENE 9.2 mph - N/A   Clear
3:35 PM 48.7 °F - 27.1 °F 43% 29.94 in 10.0 mi NE 10.4 mph - N/A   Clear
3:55 PM 49.1 °F - 27.0 °F 42% 29.94 in 10.0 mi NE 11.5 mph - N/A   Clear
4:15 PM 49.3 °F - 25.9 °F 40% 29.92 in 10.0 mi NE 17.3 mph 20.7 mph N/A   Clear
4:35 PM 48.6 °F - 25.9 °F 41% 29.91 in 10.0 mi NE 13.8 mph - N/A   Clear
4:55 PM 46.9 °F - 29.1 °F 50% 29.90 in 10.0 mi NNE 11.5 mph - N/A   Clear
5:15 PM 46.2 °F 39.5 °F 28.0 °F 49% 29.88 in 10.0 mi NE 16.1 mph 21.9 mph N/A   Clear
5:35 PM 44.8 °F 37.1 °F 27.5 °F 51% 29.88 in 10.0 mi NE 18.4 mph 24.2 mph N/A   Clear
5:55 PM 44.1 °F 37.1 °F 27.5 °F 52% 29.86 in 10.0 mi NE 15.0 mph 21.9 mph N/A   Clear
6:15 PM 43.2 °F 35.9 °F 27.9 °F 55% 29.86 in 10.0 mi NE 15.0 mph 21.9 mph N/A   Clear
6:55 PM 42.4 °F 35.7 °F 28.6 °F 58% 29.87 in 10.0 mi NE 12.7 mph - N/A   Clear
7:15 PM 43.2 °F 36.6 °F 28.8 °F 57% 29.88 in 10.0 mi ENE 12.7 mph 20.7 mph N/A   Clear
7:35 PM 43.0 °F 36.0 °F 28.6 °F 57% 29.88 in 10.0 mi NE 13.8 mph - N/A   Clear
7:55 PM 43.2 °F 35.9 °F 28.8 °F 57% 29.88 in 10.0 mi ENE 15.0 mph 20.7 mph N/A   Mostly Cloudy
8:15 PM 43.0 °F 35.7 °F 28.8 °F 57% 29.86 in 10.0 mi NE 15.0 mph - N/A   Overcast
8:35 PM 43.2 °F 35.6 °F 28.6 °F 56% 29.85 in 10.0 mi NE 16.1 mph 21.9 mph N/A   Overcast
8:55 PM 43.3 °F 36.1 °F 28.2 °F 55% 29.84 in 10.0 mi ENE 15.0 mph 20.7 mph N/A   Overcast
9:15 PM 43.2 °F 35.6 °F 28.0 °F 55% 29.83 in 10.0 mi ENE 16.1 mph 23.0 mph N/A   Overcast
9:55 PM 43.2 °F 34.5 °F 27.9 °F 55% 29.78 in 10.0 mi NE 20.7 mph 26.5 mph N/A   Overcast
10:15 PM 43.3 °F 35.0 °F 27.5 °F 54% 29.76 in 10.0 mi ENE 19.6 mph 26.5 mph N/A   Overcast
10:35 PM 43.3 °F 35.5 °F 27.5 °F 54% 29.77 in 10.0 mi ENE 17.3 mph 24.2 mph N/A   Overcast
10:55 PM 43.2 °F 35.3 °F 27.3 °F 54% 29.76 in 10.0 mi ENE 17.3 mph 24.2 mph N/A   Overcast
11:15 PM 43.2 °F 35.9 °F 27.3 °F 54% 29.74 in 10.0 mi ENE 15.0 mph 21.9 mph N/A   Overcast
11:35 PM 43.2 °F 35.0 °F 27.1 °F 53% 29.73 in 10.0 mi ENE 18.4 mph 24.2 mph N/A   Overcast
11:55 PM 43.2 °F 35.0 °F 27.0 °F 53% 29.71 in 10.0 mi ENE 18.4 mph - N/A   Overcast